Oxford, NC

2:39 PM EST on November 12, 2019 (GMT -0500)
Henderson-Oxford

Weather History for KHNZ - June, 2019

Change the Weather History Date:

Thursday, June 6, 2019

  Actual Average (WUND) Record (WUND)
Temperature  
Mean Temperature 76 °F -  
Max Temperature 87 °F - - (-1)
Min Temperature 66 °F - - (-1)
Cooling Degree Days 12    
Growing Degree Days 26 (Base 50)    
Moisture  
Dew Point 66 °F    
Average Humidity 83    
Maximum Humidity 97    
Minimum Humidity 47    
Precipitation  
Precipitation 0.08 in - - ()
Sea Level Pressure  
Sea Level Pressure 29.86 in    
Wind  
Wind Speed 1 mph (WSW)    
Max Wind Speed 10 mph    
Max Gust Speed 22 mph    
Visibility 9 miles    
Events Rain    
Averages and records for this station are not official NWS values.
T = Trace of Precipitation, MM = Missing Value Source: NWS Daily Summary

Daily Weather History Graph

Daily Weather History Graph

Search for Another Location

Airport or City:

Astronomy

Jun. 06, 2019 Rise Set
Actual Time 5:56 AM EDT 8:29 PM EDT
Civil Twilight 5:26 AM EDT 8:59 PM EDT
Nautical Twilight 4:49 AM EDT 9:36 PM EDT
Astronomical Twilight 4:07 AM EDT 10:18 PM EDT
Moon 9:02 AM EDT (6/6) 11:47 PM EDT (6/6)
Length of Visible Light 15h 33m
Length of Day
14h 32m
Waxing Crescent, 13% of the Moon is Illuminated
Jun 6
Waxing Crescent
Jun 10
First Quarter
Jun 17
Full
Jun 25
Last Quarter
Jul 2
New

Hourly Weather History & Observations

Time (EDT) Temp. Heat Index Dew Point Humidity Pressure Visibility Wind Dir Wind Speed Gust Speed Precip Events Conditions
12:00 AM 68.7 °F - 67.1 °F 95% 29.91 in 10.0 mi Calm Calm - N/A   Scattered Clouds
12:20 AM 68.9 °F - 67.1 °F 94% 29.91 in 10.0 mi SSW 9.2 mph - N/A   Mostly Cloudy
12:40 AM 68.9 °F - 67.1 °F 94% 29.90 in 10.0 mi Calm Calm - N/A   Mostly Cloudy
1:00 AM 68.5 °F - 67.1 °F 95% 29.90 in 10.0 mi Calm Calm - N/A   Scattered Clouds
1:20 AM 68.5 °F - 67.1 °F 95% 29.89 in 10.0 mi Calm Calm - N/A   Clear
1:40 AM 68.4 °F - 66.7 °F 95% 29.89 in 10.0 mi Calm Calm - N/A   Clear
2:00 AM 68.2 °F - 66.7 °F 95% 29.88 in 7.0 mi SW 5.8 mph - N/A   Clear
2:20 AM 68.0 °F - 66.6 °F 95% 29.87 in 10.0 mi Calm Calm - N/A   Clear
2:40 AM 68.2 °F - 66.6 °F 95% 29.86 in 10.0 mi SW 8.1 mph - N/A   Clear
3:00 AM 68.0 °F - 66.4 °F 95% 29.86 in 10.0 mi Calm Calm - N/A   Clear
3:20 AM 68.0 °F - 66.4 °F 95% 29.86 in 7.0 mi Calm Calm - N/A   Clear
3:40 AM 67.6 °F - 66.2 °F 95% 29.85 in 7.0 mi Calm Calm - N/A   Clear
4:00 AM 67.6 °F - 66.2 °F 95% 29.85 in 10.0 mi Calm Calm - N/A   Clear
4:20 AM 67.3 °F - 66.0 °F 96% 29.85 in 7.0 mi Calm Calm - N/A   Clear
4:40 AM 67.3 °F - 66.0 °F 96% 29.85 in 7.0 mi Calm Calm - N/A   Clear
5:00 AM 67.1 °F - 65.8 °F 96% 29.85 in 7.0 mi Calm Calm - N/A   Clear
5:20 AM 66.9 °F - 65.7 °F 96% 29.85 in 7.0 mi Calm Calm - N/A   Clear
5:40 AM 67.1 °F - 65.8 °F 96% 29.86 in 7.0 mi Calm Calm - N/A   Clear
6:00 AM 67.1 °F - 65.7 °F 95% 29.86 in 7.0 mi Calm Calm - N/A   Clear
6:20 AM 67.1 °F - 65.7 °F 95% 29.86 in 5.0 mi Calm Calm - N/A   Clear
6:40 AM 67.3 °F - 66.0 °F 96% 29.86 in 7.0 mi Calm Calm - N/A   Clear
7:00 AM 68.4 °F - 66.4 °F 93% 29.86 in 7.0 mi Calm Calm - N/A   Clear
7:20 AM 68.9 °F - 66.6 °F 92% 29.86 in 7.0 mi Calm Calm - N/A   Clear
7:40 AM 69.1 °F - 66.7 °F 92% 29.87 in 7.0 mi Calm Calm - N/A   Clear
8:00 AM 69.8 °F - 66.9 °F 91% 29.87 in 10.0 mi Calm Calm - N/A   Clear
8:20 AM 71.1 °F - 67.3 °F 88% 29.87 in 10.0 mi Calm Calm - N/A   Clear
8:40 AM 72.5 °F - 67.6 °F 85% 29.87 in 10.0 mi SW 4.6 mph - N/A   Clear
9:40 AM 75.9 °F - 67.6 °F 75% 29.87 in 10.0 mi WSW 8.1 mph - N/A   Clear
10:00 AM 75.0 °F - 67.3 °F 77% 29.87 in 10.0 mi Calm Calm - N/A   Clear
10:20 AM 74.7 °F - 67.1 °F 77% 29.87 in 10.0 mi Calm Calm - N/A   Clear
10:40 AM 74.8 °F - 67.5 °F 78% 29.87 in 10.0 mi Calm Calm - N/A   Clear
11:00 AM 74.8 °F - 67.5 °F 78% 29.87 in 10.0 mi Calm Calm - N/A   Clear
11:20 AM 77.2 °F - 68.0 °F 73% 29.88 in 10.0 mi SW 8.1 mph - N/A   Clear
11:40 AM 79.0 °F - 68.0 °F 69% 29.88 in 10.0 mi SW 3.5 mph - N/A   Clear
12:00 PM 78.4 °F - 67.8 °F 70% 29.88 in 10.0 mi Calm Calm - N/A   Clear
12:20 PM 77.7 °F - 68.0 °F 72% 29.87 in 10.0 mi Calm Calm - N/A   Clear
12:40 PM 81.3 °F 84.3 °F 68.4 °F 65% 29.86 in 10.0 mi Calm Calm - N/A   Clear
1:00 PM 83.3 °F 85.7 °F 66.7 °F 57% 29.86 in 10.0 mi WSW 10.4 mph - N/A   Clear
1:20 PM 83.8 °F 86.3 °F 66.4 °F 56% 29.86 in 10.0 mi Calm Calm - N/A   Clear
1:40 PM 84.4 °F 86.1 °F 65.1 °F 52% 29.86 in 10.0 mi Calm Calm - N/A   Clear
2:00 PM 85.3 °F 86.8 °F 64.9 °F 50% 29.85 in 10.0 mi Calm Calm - N/A   Scattered Clouds
2:20 PM 85.3 °F 87.1 °F 65.3 °F 51% 29.85 in 10.0 mi Calm Calm - N/A   Scattered Clouds
2:40 PM 87.1 °F 88.9 °F 65.3 °F 48% 29.84 in 10.0 mi West 8.1 mph - N/A   Scattered Clouds
3:00 PM 86.2 °F 87.3 °F 63.9 °F 47% 29.82 in 10.0 mi West 4.6 mph - N/A   Clear
3:20 PM 87.1 °F 88.6 °F 64.4 °F 47% 29.82 in 10.0 mi Calm Calm - N/A   Clear
3:40 PM 86.4 °F 87.6 °F 64.2 °F 47% 29.82 in 10.0 mi Calm Calm - N/A   Scattered Clouds
4:00 PM 84.6 °F 87.4 °F 67.1 °F 56% 29.81 in 10.0 mi Calm Calm - N/A   Clear
4:20 PM 80.4 °F 82.2 °F 65.1 °F 59% 29.82 in 10.0 mi SSW 6.9 mph 21.9 mph N/A   Scattered Clouds
4:40 PM 77.2 °F - 64.8 °F 65% 29.84 in 10.0 mi Calm Calm - N/A Rain Light Rain
5:00 PM 75.4 °F - 66.4 °F 73% 29.85 in 10.0 mi Calm Calm - N/A   Mostly Cloudy
5:20 PM 71.8 °F - 66.7 °F 84% 29.85 in 10.0 mi NE 4.6 mph - N/A   Scattered Clouds
5:40 PM 70.7 °F - 66.9 °F 88% 29.85 in 10.0 mi Calm Calm - N/A   Scattered Clouds
6:00 PM 71.2 °F - 67.1 °F 87% 29.85 in 10.0 mi Calm Calm - N/A   Clear
6:20 PM 70.9 °F - 67.1 °F 88% 29.86 in 10.0 mi NW 9.2 mph - N/A   Mostly Cloudy
6:40 PM 70.0 °F - 66.6 °F 89% 29.88 in 10.0 mi Calm Calm - N/A Rain Light Rain
7:00 PM 67.3 °F - 65.3 °F 93% 29.88 in 2.5 mi Calm Calm - 0.02 in Rain Rain
7:20 PM 67.1 °F - 65.5 °F 95% 29.85 in 5.0 mi Calm Calm - 0.05 in Rain Light Rain
7:40 PM 67.3 °F - 66.2 °F 96% 29.86 in 5.0 mi Calm Calm - 0.07 in Rain Light Rain
8:00 PM 67.1 °F - 65.8 °F 96% 29.85 in 7.0 mi Calm Calm - N/A Rain Light Rain
8:20 PM 67.3 °F - 66.2 °F 96% 29.85 in 7.0 mi Calm Calm - N/A Rain Light Rain
8:40 PM 67.3 °F - 66.0 °F 96% 29.85 in 10.0 mi Calm Calm - N/A   Clear
9:00 PM 67.1 °F - 66.2 °F 97% 29.85 in 10.0 mi Calm Calm - N/A   Clear
9:20 PM 67.3 °F - 65.8 °F 95% 29.86 in 10.0 mi Calm Calm - 0.01 in   Clear
9:40 PM 67.3 °F - 65.8 °F 95% 29.87 in 10.0 mi Calm Calm - 0.01 in Rain Light Rain
10:00 PM 67.5 °F - 66.2 °F 96% 29.87 in 10.0 mi Calm Calm - N/A   Clear
10:20 PM 67.1 °F - 66.0 °F 96% 29.86 in 10.0 mi Calm Calm - N/A   Clear
11:00 PM 67.3 °F - 66.2 °F 96% 29.86 in 10.0 mi Calm Calm - N/A   Clear
11:20 PM 67.3 °F - 65.8 °F 95% 29.87 in 10.0 mi Calm Calm - N/A   Clear
11:40 PM 67.3 °F - 66.0 °F 96% 29.87 in 10.0 mi Calm Calm - N/A   Clear